Home > Weather > Busan > Past weeks

Flag for South Korea Past Weather in Busan, South Korea — Yesterday and Last 2 Weeks

Now
75 °F

Passing clouds.


Feels Like: 75 °F
Forecast: 71 / 77 °F
Wind: 5 mph from South

Location: Pusan / Kimhae International Airport

Current Time: Jul 1, 2016 at 12:51:07 AM

Latest Report: Jul 1, 2016 at 12:00 AM


Visibility: N/A

Pressure: 29.86 "Hg

Humidity: 83%

Dew Point: 70 °F

Location of BusanLocation

Past Weather in Busan — Graph

°F

Busan Temperature Yesterday

Maximum temperature yesterday: 79 °F (at 10:00 AM)
Minimum temperature yesterday: 68 °F (at 2:00 AM)
Average temperature yesterday: 75 °F

High & Low Weather Summary for the Past Weeks

 TemperatureHumidityPressure
High86 °F (Jun 17, 1:00 PM)100% (Jun 16, 3:00 AM)29.92 "Hg (Jun 16, 3:00 AM)
Low64 °F (Jun 26, 5:00 AM)43% (Jun 17, 1:00 PM)29.36 "Hg (Jun 24, 4:00 PM)
Average74 °F80%29.74 "Hg
* Reported Jun 15 11:00 PM — Jun 30 11:00 PM, Busan, Weather by CustomWeather, © 2016

Note: Actual official high and low records may vary slightly from our data, if they occured in-between our weather recording intervals... More about our weather records

Advertising

Busan Weather History for the Previous 24 Hours

Scroll right to see more
 ConditionsComfort  
Time TempWeatherWind HumidityBarometerVisibility
11:00 PM
Thu, Jun 30
75 °FPassing clouds.8 mph83%29.86 "HgN/A
10:00 PM75 °FPassing clouds.10 mph89%29.86 "HgN/A
9:00 PM75 °FPassing clouds.9 mph89%29.86 "HgN/A
8:00 PM77 °FPassing clouds.12 mph83%29.86 "HgN/A
7:00 PM79 °FScattered clouds.10 mph74%29.86 "HgN/A
6:00 PM79 °FBroken clouds.14 mph79%29.83 "HgN/A
5:00 PM77 °FBroken clouds.15 mph83%29.83 "HgN/A
4:00 PM79 °FScattered clouds.16 mph84%29.86 "HgN/A
3:00 PM79 °FScattered clouds.17 mph84%29.86 "HgN/A
2:00 PM77 °FBroken clouds.16 mph83%29.86 "HgN/A
1:00 PM79 °FPartly sunny.12 mph79%29.89 "HgN/A
12:00 PM79 °FPartly sunny.12 mph79%29.89 "HgN/A
11:00 AM79 °FBroken clouds.10 mph79%29.89 "HgN/A
10:00 AM79 °FPartly sunny.5 mph79%29.89 "Hg6 mi
9:00 AM75 °FFog.3 mph83%29.89 "Hg3 mi
8:00 AM73 °FFog.3 mph83%29.89 "Hg2 mi
7:00 AM72 °FFog.3 mph78%29.89 "Hg2 mi
6:00 AM70 °FFog.2 mph88%29.89 "Hg2 mi
5:00 AM68 °FFog.1 mph83%29.89 "Hg2 mi
4:00 AM68 °FFog.3 mph83%29.89 "Hg3 mi
3:00 AM68 °FPartly cloudy.5 mph94%29.86 "Hg4 mi
2:00 AM68 °FPassing clouds.2 mph100%29.89 "Hg5 mi
1:00 AM70 °FPartly cloudy.2 mph94%29.89 "HgN/A
12:00 AM70 °FPassing clouds.3 mph94%29.89 "HgN/A
Weather by CustomWeather, © 2016

See weather overviewHow to use our weather pages